Time,TemperatureF,DewpointF,PressureIn,WindDirection,WindDirectionDegrees,WindSpeedMPH,WindSpeedGustMPH,Humidity,HourlyPrecipIn,Conditions,Clouds,dailyrainin,SoftwareType,DateUTC
2013-07-15 00:00:00,80.6,72.3,30.20,East,88,0.0,0.0,76,0.00,,---,0.04,VWS V14.01,2013-07-15 04:00:00,
2013-07-15 00:01:00,80.6,72.3,30.20,East,88,0.0,0.0,76,0.00,,---,0.00,VWS V14.01,2013-07-15 04:01:00,
2013-07-15 00:06:00,80.6,72.3,30.20,East,88,0.0,0.0,76,0.00,,---,0.00,VWS V14.01,2013-07-15 04:06:00,
2013-07-15 00:11:00,80.6,72.3,30.21,East,88,0.0,0.0,76,0.00,,---,0.00,VWS V14.01,2013-07-15 04:11:00,
2013-07-15 00:16:00,80.6,72.3,30.20,East,88,0.0,0.0,76,0.00,,---,0.00,VWS V14.01,2013-07-15 04:16:00,
2013-07-15 00:21:00,79.6,71.0,30.20,East,89,0.0,0.0,75,0.00,,---,0.00,VWS V14.01,2013-07-15 04:21:00,
2013-07-15 00:26:00,79.8,71.2,30.20,ESE,108,0.0,0.0,75,0.00,,---,0.00,VWS V14.01,2013-07-15 04:26:00,
2013-07-15 00:30:00,80.1,71.5,30.20,East,83,0.0,0.0,75,0.00,,---,0.00,VWS V14.01,2013-07-15 04:30:00,
2013-07-15 00:31:00,80.2,71.6,30.20,East,101,0.0,0.0,75,0.00,,---,0.00,VWS V14.01,2013-07-15 04:31:00,
2013-07-15 00:36:00,80.3,71.7,30.20,ESE,107,0.0,0.0,75,0.00,,---,0.00,VWS V14.01,2013-07-15 04:36:00,
2013-07-15 00:41:00,80.4,72.5,30.20,ESE,108,0.0,0.0,77,0.00,,---,0.00,VWS V14.01,2013-07-15 04:41:00,
2013-07-15 00:46:00,80.4,72.5,30.20,East,96,0.0,0.0,77,0.00,,---,0.00,VWS V14.01,2013-07-15 04:46:00,
2013-07-15 00:51:00,80.3,72.4,30.21,ENE,71,0.0,0.0,77,0.00,,---,0.00,VWS V14.01,2013-07-15 04:51:00,
2013-07-15 00:56:00,80.3,72.4,30.20,ESE,102,0.0,0.0,77,0.00,,---,0.00,VWS V14.01,2013-07-15 04:56:00,
2013-07-15 01:00:00,80.3,72.4,30.20,ESE,107,0.0,0.0,77,0.00,,---,0.00,VWS V14.01,2013-07-15 05:00:00,
2013-07-15 01:01:00,80.4,72.5,30.20,East,86,0.0,0.0,77,0.00,,---,0.00,VWS V14.01,2013-07-15 05:01:00,
2013-07-15 01:06:00,80.3,72.4,30.20,East,98,0.0,0.0,77,0.00,,---,0.00,VWS V14.01,2013-07-15 05:06:00,
2013-07-15 01:11:00,80.4,72.5,30.20,ESE,113,0.0,0.0,77,0.00,,---,0.00,VWS V14.01,2013-07-15 05:11:00,
2013-07-15 01:16:00,80.5,72.2,30.20,East,89,0.0,0.0,76,0.00,,---,0.00,VWS V14.01,2013-07-15 05:16:00,
2013-07-15 01:21:00,80.5,72.2,30.20,East,96,0.0,0.0,76,0.00,,---,0.00,VWS V14.01,2013-07-15 05:21:00,
2013-07-15 01:26:00,80.5,72.6,30.20,ESE,107,0.0,0.0,77,0.00,,---,0.00,VWS V14.01,2013-07-15 05:26:00,
2013-07-15 01:30:00,80.5,72.6,30.20,ENE,78,0.0,0.0,77,0.00,,---,0.00,VWS V14.01,2013-07-15 05:30:00,
2013-07-15 01:31:00,80.5,72.6,30.20,ENE,74,0.0,0.0,77,0.00,,---,0.00,VWS V14.01,2013-07-15 05:31:00,
2013-07-15 01:36:00,80.4,72.5,30.20,East,91,0.0,0.0,77,0.00,,---,0.00,VWS V14.01,2013-07-15 05:36:00,
2013-07-15 01:41:00,80.5,72.6,30.20,ESE,109,0.0,0.0,77,0.00,,---,0.00,VWS V14.01,2013-07-15 05:41:00,
2013-07-15 01:46:00,80.5,72.6,30.20,East,88,0.0,0.0,77,0.00,,---,0.00,VWS V14.01,2013-07-15 05:46:00,
2013-07-15 01:51:00,80.5,72.6,30.20,East,99,0.0,0.0,77,0.00,,---,0.00,VWS V14.01,2013-07-15 05:51:00,
2013-07-15 01:56:00,80.5,72.6,30.20,East,97,0.0,0.0,77,0.00,,---,0.00,VWS V14.01,2013-07-15 05:56:00,
2013-07-15 02:00:00,80.5,72.6,30.20,East,94,0.0,0.0,77,0.00,,---,0.00,VWS V14.01,2013-07-15 06:00:00,
2013-07-15 02:01:00,80.5,72.6,30.20,East,81,0.0,0.0,77,0.00,,---,0.00,VWS V14.01,2013-07-15 06:01:00,
2013-07-15 02:06:00,80.5,72.6,30.19,East,97,0.0,0.0,77,0.00,,---,0.00,VWS V14.01,2013-07-15 06:06:00,
2013-07-15 02:11:00,80.5,72.6,30.19,ESE,109,0.0,0.0,77,0.00,,---,0.00,VWS V14.01,2013-07-15 06:11:00,
2013-07-15 02:16:00,80.4,72.5,30.20,East,98,0.0,0.0,77,0.00,,---,0.00,VWS V14.01,2013-07-15 06:16:00,
2013-07-15 02:21:00,80.4,72.5,30.19,East,86,0.0,0.0,77,0.00,,---,0.00,VWS V14.01,2013-07-15 06:21:00,
2013-07-15 02:26:00,80.4,72.5,30.19,East,90,0.0,0.0,77,0.00,,---,0.00,VWS V14.01,2013-07-15 06:26:00,
2013-07-15 02:30:00,80.4,72.5,30.19,East,99,0.0,0.0,77,0.00,,---,0.00,VWS V14.01,2013-07-15 06:30:00,
2013-07-15 02:31:00,80.4,72.5,30.19,ESE,119,0.0,0.0,77,0.00,,---,0.00,VWS V14.01,2013-07-15 06:31:00,
2013-07-15 02:36:00,80.4,72.5,30.19,ESE,103,0.0,0.0,77,0.00,,---,0.00,VWS V14.01,2013-07-15 06:36:00,
2013-07-15 02:41:00,80.4,72.9,30.19,ESE,102,0.0,0.0,78,0.00,,---,0.00,VWS V14.01,2013-07-15 06:41:00,
2013-07-15 02:45:00,80.4,72.5,30.19,East,86,0.0,0.0,77,0.00,,---,0.00,VWS V14.01,2013-07-15 06:45:00,
2013-07-15 02:50:00,80.4,72.5,30.19,ENE,71,0.0,0.0,77,0.00,,---,0.00,VWS V14.01,2013-07-15 06:50:00,
2013-07-15 02:55:00,80.4,72.9,30.19,ESE,105,0.0,0.0,78,0.00,,---,0.00,VWS V14.01,2013-07-15 06:55:00,
2013-07-15 03:00:00,80.3,72.4,30.19,ESE,114,0.0,0.0,77,0.00,,---,0.00,VWS V14.01,2013-07-15 07:00:00,
2013-07-15 03:05:00,80.3,72.8,30.19,ENE,73,0.0,0.0,78,0.00,,---,0.00,VWS V14.01,2013-07-15 07:05:00,
2013-07-15 03:10:00,80.3,72.4,30.19,East,97,0.0,0.0,77,0.00,,---,0.00,VWS V14.01,2013-07-15 07:10:00,
2013-07-15 03:15:00,80.3,72.8,30.19,East,81,0.0,0.0,78,0.00,,---,0.00,VWS V14.01,2013-07-15 07:15:00,
2013-07-15 03:20:00,80.3,72.4,30.19,ESE,118,0.0,0.0,77,0.00,,---,0.00,VWS V14.01,2013-07-15 07:20:00,
2013-07-15 03:25:00,80.3,72.4,30.19,East,98,0.0,0.0,77,0.00,,---,0.00,VWS V14.01,2013-07-15 07:25:00,
2013-07-15 03:30:00,80.4,72.9,30.19,East,101,0.0,0.0,78,0.00,,---,0.00,VWS V14.01,2013-07-15 07:30:00,
2013-07-15 03:35:00,80.4,72.9,30.18,ESE,109,0.0,0.0,78,0.00,,---,0.00,VWS V14.01,2013-07-15 07:35:00,
2013-07-15 03:40:00,80.2,72.7,30.18,East,88,0.0,0.0,78,0.00,,---,0.00,VWS V14.01,2013-07-15 07:40:00,
2013-07-15 03:45:00,80.2,72.7,30.18,East,92,0.0,0.0,78,0.00,,---,0.00,VWS V14.01,2013-07-15 07:45:00,
2013-07-15 03:50:00,80.2,72.7,30.18,East,96,0.0,0.0,78,0.00,,---,0.00,VWS V14.01,2013-07-15 07:50:00,
2013-07-15 03:55:00,80.2,72.7,30.18,ESE,112,0.0,0.0,78,0.00,,---,0.00,VWS V14.01,2013-07-15 07:55:00,
2013-07-15 04:00:00,80.2,72.7,30.18,ESE,111,0.0,0.0,78,0.00,,---,0.00,VWS V14.01,2013-07-15 08:00:00,
2013-07-15 04:05:00,80.2,72.7,30.19,ESE,103,0.0,0.0,78,0.00,,---,0.00,VWS V14.01,2013-07-15 08:05:00,
2013-07-15 04:10:00,80.2,72.7,30.19,East,86,0.0,0.0,78,0.00,,---,0.00,VWS V14.01,2013-07-15 08:10:00,
2013-07-15 04:15:00,80.2,72.7,30.19,ESE,109,0.0,0.0,78,0.00,,---,0.00,VWS V14.01,2013-07-15 08:15:00,
2013-07-15 04:20:00,80.2,72.7,30.19,ESE,103,0.0,0.0,78,0.00,,---,0.00,VWS V14.01,2013-07-15 08:20:00,
2013-07-15 04:25:00,80.2,72.7,30.19,ESE,106,0.0,0.0,78,0.00,,---,0.00,VWS V14.01,2013-07-15 08:25:00,
2013-07-15 04:30:00,80.2,72.7,30.19,East,88,0.0,0.0,78,0.00,,---,0.00,VWS V14.01,2013-07-15 08:30:00,
2013-07-15 04:35:00,80.2,72.7,30.19,ESE,115,0.0,0.0,78,0.00,,---,0.00,VWS V14.01,2013-07-15 08:35:00,
2013-07-15 04:40:00,80.2,72.7,30.19,ESE,113,0.0,0.0,78,0.00,,---,0.00,VWS V14.01,2013-07-15 08:40:00,
2013-07-15 04:45:00,80.3,72.8,30.19,ESE,114,0.0,0.0,78,0.00,,---,0.00,VWS V14.01,2013-07-15 08:45:00,
2013-07-15 04:50:00,80.3,72.8,30.19,ESE,111,0.0,0.0,78,0.00,,---,0.00,VWS V14.01,2013-07-15 08:50:00,
2013-07-15 04:55:00,80.2,72.7,30.18,ESE,104,0.0,0.0,78,0.00,,---,0.00,VWS V14.01,2013-07-15 08:55:00,
2013-07-15 05:00:00,80.2,72.3,30.19,ESE,113,0.0,0.0,77,0.00,,---,0.00,VWS V14.01,2013-07-15 09:00:00,
2013-07-15 05:05:00,80.3,72.4,30.19,East,101,0.0,0.0,77,0.00,,---,0.00,VWS V14.01,2013-07-15 09:05:00,
2013-07-15 05:10:00,80.3,72.4,30.19,ESE,116,0.0,0.0,77,0.00,,---,0.00,VWS V14.01,2013-07-15 09:10:00,
2013-07-15 05:15:00,80.3,72.4,30.19,ESE,115,0.0,0.0,77,0.00,,---,0.00,VWS V14.01,2013-07-15 09:15:00,
2013-07-15 05:20:00,80.2,72.3,30.19,ESE,118,0.0,0.0,77,0.00,,---,0.00,VWS V14.01,2013-07-15 09:20:00,
2013-07-15 05:25:00,80.2,72.3,30.19,East,88,0.0,0.0,77,0.00,,---,0.00,VWS V14.01,2013-07-15 09:25:00,
2013-07-15 05:30:00,80.2,72.3,30.19,East,89,0.0,0.0,77,0.00,,---,0.00,VWS V14.01,2013-07-15 09:30:00,
2013-07-15 05:35:00,80.2,72.7,30.19,ESE,115,0.0,0.0,78,0.00,,---,0.00,VWS V14.01,2013-07-15 09:35:00,
2013-07-15 05:40:00,80.1,72.2,30.19,ESE,105,0.0,0.0,77,0.00,,---,0.00,VWS V14.01,2013-07-15 09:40:00,
2013-07-15 05:45:00,80.1,72.2,30.20,East,98,0.0,0.0,77,0.00,,---,0.00,VWS V14.01,2013-07-15 09:45:00,
2013-07-15 05:50:00,80.2,72.3,30.20,NE,50,0.0,0.0,77,0.00,,---,0.00,VWS V14.01,2013-07-15 09:50:00,
2013-07-15 05:55:00,80.1,72.2,30.20,ESE,121,0.0,0.0,77,0.00,,---,0.00,VWS V14.01,2013-07-15 09:55:00,
2013-07-15 06:00:00,80.1,72.2,30.20,ESE,107,0.0,0.0,77,0.00,,---,0.00,VWS V14.01,2013-07-15 10:00:00,
2013-07-15 06:05:00,80.1,72.2,30.20,ESE,113,0.0,0.0,77,0.00,,---,0.00,VWS V14.01,2013-07-15 10:05:00,
2013-07-15 06:10:00,80.2,72.7,30.20,ESE,121,0.0,0.0,78,0.00,,---,0.00,VWS V14.01,2013-07-15 10:10:00,
2013-07-15 06:15:00,80.3,72.8,30.20,ESE,111,0.0,0.0,78,0.00,,---,0.00,VWS V14.01,2013-07-15 10:15:00,
2013-07-15 06:20:00,80.2,72.7,30.20,East,99,0.0,0.0,78,0.00,,---,0.00,VWS V14.01,2013-07-15 10:20:00,
2013-07-15 06:25:00,80.2,72.7,30.20,ESE,105,0.0,0.0,78,0.00,,---,0.00,VWS V14.01,2013-07-15 10:25:00,
2013-07-15 06:30:00,80.2,72.7,30.20,ESE,120,0.0,0.0,78,0.00,,---,0.00,VWS V14.01,2013-07-15 10:30:00,
2013-07-15 06:35:00,80.3,72.8,30.20,ESE,105,0.0,0.0,78,0.00,,---,0.00,VWS V14.01,2013-07-15 10:35:00,
2013-07-15 06:40:00,80.3,72.8,30.21,SE,129,0.0,0.0,78,0.00,,---,0.00,VWS V14.01,2013-07-15 10:40:00,
2013-07-15 06:45:00,80.3,72.8,30.21,ESE,103,0.0,0.0,78,0.00,,---,0.00,VWS V14.01,2013-07-15 10:45:00,
2013-07-15 06:50:00,80.3,72.8,30.21,ESE,116,0.0,0.0,78,0.00,,---,0.00,VWS V14.01,2013-07-15 10:50:00,
2013-07-15 06:55:00,80.3,72.8,30.21,ESE,107,0.0,0.0,78,0.00,,---,0.00,VWS V14.01,2013-07-15 10:55:00,
2013-07-15 07:00:00,80.2,72.3,30.21,SE,144,0.0,0.0,77,0.00,,---,0.00,VWS V14.01,2013-07-15 11:00:00,
2013-07-15 07:05:00,80.2,72.3,30.21,SE,128,0.0,0.0,77,0.00,,---,0.00,VWS V14.01,2013-07-15 11:05:00,
2013-07-15 07:10:00,80.3,72.4,30.21,East,98,0.0,0.0,77,0.00,,---,0.00,VWS V14.01,2013-07-15 11:10:00,
2013-07-15 07:15:00,80.5,72.6,30.21,East,97,0.0,0.0,77,0.00,,---,0.00,VWS V14.01,2013-07-15 11:15:00,
2013-07-15 07:20:00,80.4,72.5,30.21,ESE,113,0.0,0.0,77,0.00,,---,0.00,VWS V14.01,2013-07-15 11:20:00,
2013-07-15 07:25:00,80.5,72.6,30.21,ENE,60,0.0,0.0,77,0.00,,---,0.00,VWS V14.01,2013-07-15 11:25:00,
2013-07-15 07:30:00,80.4,72.5,30.22,ESE,111,0.0,0.0,77,0.00,,---,0.00,VWS V14.01,2013-07-15 11:30:00,
2013-07-15 07:35:00,80.7,72.8,30.21,ESE,111,0.0,0.0,77,0.00,,---,0.00,VWS V14.01,2013-07-15 11:35:00,
2013-07-15 07:40:00,81.1,73.2,30.21,SE,124,0.0,0.0,77,0.00,,---,0.00,VWS V14.01,2013-07-15 11:40:00,
2013-07-15 07:45:00,81.3,73.0,30.21,ESE,119,0.0,0.0,76,0.00,,---,0.00,VWS V14.01,2013-07-15 11:45:00,
2013-07-15 07:50:00,81.5,73.2,30.21,SE,140,0.0,0.0,76,0.00,,---,0.00,VWS V14.01,2013-07-15 11:50:00,
2013-07-15 07:55:00,81.5,73.2,30.21,ESE,113,0.0,0.0,76,0.00,,---,0.00,VWS V14.01,2013-07-15 11:55:00,
2013-07-15 08:00:00,81.7,73.0,30.21,East,94,0.0,0.0,75,0.00,,---,0.00,VWS V14.01,2013-07-15 12:00:00,
2013-07-15 08:05:00,81.9,73.2,30.22,East,95,0.0,0.0,75,0.00,,---,0.00,VWS V14.01,2013-07-15 12:05:00,
2013-07-15 08:10:00,81.9,73.2,30.21,East,94,0.0,0.0,75,0.00,,---,0.00,VWS V14.01,2013-07-15 12:10:00,
2013-07-15 08:15:00,82.0,73.3,30.21,SE,126,0.0,0.0,75,0.00,,---,0.00,VWS V14.01,2013-07-15 12:15:00,
2013-07-15 08:20:00,82.0,73.3,30.21,ESE,121,0.0,0.0,75,0.00,,---,0.00,VWS V14.01,2013-07-15 12:20:00,
2013-07-15 08:25:00,82.0,73.3,30.22,SE,128,0.0,0.0,75,0.00,,---,0.00,VWS V14.01,2013-07-15 12:25:00,
2013-07-15 08:30:00,82.2,73.5,30.22,ESE,112,0.0,0.0,75,0.00,,---,0.00,VWS V14.01,2013-07-15 12:30:00,
2013-07-15 08:37:00,82.3,73.2,30.22,East,95,0.0,0.0,74,0.00,,---,0.00,VWS V14.01,2013-07-15 12:37:00,
2013-07-15 08:42:00,82.4,73.3,30.22,East,79,0.0,0.0,74,0.00,,---,0.00,VWS V14.01,2013-07-15 12:42:00,
2013-07-15 08:47:00,82.3,72.8,30.22,ESE,111,0.0,0.0,73,0.00,,---,0.00,VWS V14.01,2013-07-15 12:47:00,
2013-07-15 08:52:00,82.5,73.4,30.22,ESE,121,0.0,0.0,74,0.00,,---,0.00,VWS V14.01,2013-07-15 12:52:00,
2013-07-15 08:57:00,82.5,73.0,30.22,East,99,0.0,0.0,73,0.00,,---,0.00,VWS V14.01,2013-07-15 12:57:00,
2013-07-15 09:00:00,82.3,73.2,30.22,ESE,109,0.0,0.0,74,0.00,,---,0.00,VWS V14.01,2013-07-15 13:00:00,
2013-07-15 09:02:00,82.2,73.1,30.22,ESE,112,0.0,0.0,74,0.00,,---,0.00,VWS V14.01,2013-07-15 13:02:00,
2013-07-15 09:07:00,82.3,73.2,30.22,SE,135,0.0,0.0,74,0.00,,---,0.00,VWS V14.01,2013-07-15 13:07:00,
2013-07-15 09:12:00,82.6,73.5,30.23,East,98,0.0,0.0,74,0.00,,---,0.00,VWS V14.01,2013-07-15 13:12:00,
2013-07-15 09:17:00,82.7,73.2,30.22,SSE,157,0.0,0.0,73,0.00,,---,0.00,VWS V14.01,2013-07-15 13:17:00,
2013-07-15 09:22:00,82.7,73.6,30.22,ESE,110,0.0,0.0,74,0.00,,---,0.00,VWS V14.01,2013-07-15 13:22:00,
2013-07-15 09:27:00,82.8,73.7,30.22,SE,134,0.0,0.0,74,0.00,,---,0.00,VWS V14.01,2013-07-15 13:27:00,
2013-07-15 09:30:00,83.0,73.9,30.22,ESE,112,0.0,0.0,74,0.00,,---,0.00,VWS V14.01,2013-07-15 13:30:00,
2013-07-15 09:32:00,83.1,73.6,30.22,East,101,0.0,0.0,73,0.00,,---,0.00,VWS V14.01,2013-07-15 13:32:00,
2013-07-15 10:00:00,82.6,73.5,30.22,East,94,0.0,0.0,74,0.00,,---,0.00,VWS V14.01,2013-07-15 14:00:00,
2013-07-15 10:30:00,83.1,73.6,30.22,ESE,103,0.0,0.0,73,0.00,,---,0.00,VWS V14.01,2013-07-15 14:30:00,
2013-07-15 11:00:00,83.8,73.8,30.23,ESE,108,0.0,0.0,72,0.00,,---,0.00,VWS V14.01,2013-07-15 15:00:00,
2013-07-15 11:30:00,83.3,74.2,30.24,East,97,0.0,0.0,74,0.00,,---,0.00,VWS V14.01,2013-07-15 15:30:00,
2013-07-15 12:00:00,83.9,74.3,30.24,East,93,0.0,0.0,73,0.00,,---,0.00,VWS V14.01,2013-07-15 16:00:00,
2013-07-15 12:30:00,83.6,74.0,30.24,ESE,103,0.0,0.0,73,0.00,,---,0.00,VWS V14.01,2013-07-15 16:30:00,
2013-07-15 13:00:00,83.6,74.0,30.24,ESE,107,0.0,0.0,73,0.00,,---,0.00,VWS V14.01,2013-07-15 17:00:00,
2013-07-15 13:30:00,83.3,73.3,30.24,ESE,107,0.0,0.0,72,0.00,,---,0.00,VWS V14.01,2013-07-15 17:30:00,
2013-07-15 14:00:00,83.6,73.6,30.23,ESE,110,0.0,0.0,72,0.00,,---,0.00,VWS V14.01,2013-07-15 18:00:00,
2013-07-15 14:30:00,83.5,73.9,30.23,SSE,147,0.0,0.0,73,0.00,,---,0.00,VWS V14.01,2013-07-15 18:30:00,
2013-07-15 15:00:00,86.8,79.9,30.22,ESE,123,5.0,10.0,80,0.00,,---,0.00,VWS V14.01,2013-07-15 19:00:00,
2013-07-15 15:30:00,86.7,79.4,30.22,SE,146,4.0,11.0,79,0.00,,---,0.00,VWS V14.01,2013-07-15 19:30:00,
2013-07-15 16:00:00,86.1,79.2,30.22,East,96,5.0,11.0,80,0.00,,---,0.00,VWS V14.01,2013-07-15 20:00:00,
2013-07-15 16:30:00,85.0,78.9,30.22,SE,138,6.0,10.0,82,0.00,,---,0.00,VWS V14.01,2013-07-15 20:30:00,
2013-07-15 17:00:00,84.5,78.4,30.21,SE,128,2.0,10.0,82,0.00,,---,0.00,VWS V14.01,2013-07-15 21:00:00,
2013-07-15 17:30:00,84.7,79.3,30.21,East,88,3.0,13.0,84,0.00,,---,0.00,VWS V14.01,2013-07-15 21:30:00,
2013-07-15 18:00:00,81.1,77.2,30.21,ENE,73,3.0,11.0,88,0.00,,---,0.00,VWS V14.01,2013-07-15 22:00:00,
2013-07-15 18:30:00,81.3,78.4,30.20,ESE,108,3.0,10.0,91,0.00,,---,0.00,VWS V14.01,2013-07-15 22:30:00,
2013-07-15 19:00:00,81.2,78.0,30.20,SSE,158,7.0,10.0,90,0.00,,---,0.00,VWS V14.01,2013-07-15 23:00:00,
2013-07-15 19:30:00,81.2,77.7,30.20,ENE,67,6.0,12.0,89,0.00,,---,0.00,VWS V14.01,2013-07-15 23:30:00,
2013-07-15 20:00:00,81.0,77.1,30.21,SE,131,4.0,9.0,88,0.00,,---,0.00,VWS V14.01,2013-07-16 00:00:00,
2013-07-15 20:30:00,80.8,76.9,30.21,East,98,4.0,5.0,88,0.00,,---,0.00,VWS V14.01,2013-07-16 00:30:00,
2013-07-15 21:00:00,80.8,76.9,30.21,East,98,4.0,4.0,88,0.00,,---,0.00,VWS V14.01,2013-07-16 01:00:00,
2013-07-15 21:30:00,80.8,76.9,30.22,East,98,4.0,4.0,88,0.00,,---,0.00,VWS V14.01,2013-07-16 01:30:00,
2013-07-15 22:00:00,80.8,76.9,30.22,East,98,4.0,4.0,88,0.00,,---,0.00,VWS V14.01,2013-07-16 02:00:00,
2013-07-15 22:30:00,80.8,76.9,30.23,East,98,4.0,4.0,88,0.00,,---,0.00,VWS V14.01,2013-07-16 02:30:00,
2013-07-15 23:00:00,80.8,76.9,30.22,East,98,4.0,4.0,88,0.00,,---,0.00,VWS V14.01,2013-07-16 03:00:00,
2013-07-15 23:30:00,0.0,0.0,30.23,North,0,0.0,0.0,0,0.00,,---,0.00,VWS V14.01,2013-07-16 03:30:00,